Regional Weather Roundup
Issued by NWS

Home | Current Version | Previous Version | Graphics & Text | Print | Product List | Glossary On
Versions: 1 2 3 4 5 6 7 8 9 10 11 12 13 14 15 16 17 18 19 20 21 22 23 24 25 26 27 28 29 30 31 32 33 34 35 36 37 38 39 40 41 42 43 44 45 46 47 48 49 50
000
ASUS45 KBOU 230307
RWRCO

WEATHER ROUNDUP FOR COLORADO
NATIONAL WEATHER SERVICE DENVER/BOULDER CO
900 PM MDT FRI MAY 22 2015

NOTE: "FAIR" INDICATES FEW OR NO CLOUDS BELOW 12000 FEET WITH NO
SIGNIFICANT WEATHER AND/OR OBSTRUCTIONS TO VISIBILITY.

COZ001>005-013-030-031-230400-
...NORTHWEST COLORADO...

CITY           SKY/WX    TMP DP  RH WIND       PRES   REMARKS
CRAIG          PTCLDY    48  41  76 N5        29.98R
HAYDEN         PTCLDY    45  37  76 E6        29.99S
MEEKER         MOCLDY    50  43  77 MISG      29.97S
MOUNT WERNER   NOT AVBL
STEAMBOAT SPGS PTCLDY    44  38  80 CALM      30.00S
WALDEN         CLOUDY    37  32  81 SE6       30.04S
$$

COZ006>008-011-230400-
...WEST CENTRAL VALLEYS...

CITY           SKY/WX    TMP DP  RH WIND       PRES   REMARKS
GRAND JUNCTION CLOUDY    53  43  68 N8        29.90F
MONTROSE       MOCLDY    50  39  66 SE13      29.98S
EAGLE          CLOUDY    52  43  71 E5        30.03R
RIFLE          LGT RAIN  54  39  57 SW12G26   29.98R
DELTA          MOCLDY    56  43  62 MISG      29.95R
NUCLA          MOCLDY    50  36  57 E15G21    29.97F
$$

COZ017>023-064>068-230400-
...SOUTHWEST COLORADO...

CITY           SKY/WX    TMP DP  RH WIND       PRES   REMARKS
DURANGO        CLOUDY    53  35  50 N7        29.98R
CORTEZ         MOCLDY    51  44  77 W6        29.93R
PAGOSA SPRINGS RAIN      49  35  59 SW16G33   30.08S
TELLURIDE      MOCLDY    40  35  82 CALM      30.10S
WOLF CREEK PAS NOT AVBL
$$

COZ009-010-012-014-032>034-037-058>063-230400-
...CENTRAL COLORADO...

CITY           SKY/WX    TMP DP  RH WIND       PRES   REMARKS
ASPEN          LGT RAIN  44  39  82 NE5       30.05R
BUENA VISTA    MOCLDY    47  33  56 W8G17     30.04F
COPPER MTN     SNOW      34  30  86 SE20      30.19S VSB 1/2 WCI  22
BERTHOUD PASS  TSTM      28  19  69 E10       30.23R VSB<1/4 WCI  19
COTTONWOOD PAS MOCLDY    41  32  70 NW7G18    30.12F
GUNNISON       MOCLDY    46  32  57 N5        30.07S
KREMMLING      LGT RAIN  45  37  76 E3        30.07R
LEADVILLE      CLOUDY    34  34 100 SW6       30.13R WCI  29
MONARCH PASS   CLOUDY    32  23  69 W10G18    30.31S WCI  24
SALIDA         MOCLDY    52  37  56 SE5       30.09F
SUNLIGHT       TSTM      36  34  93 S3        30.16F VSB 3/4
WILKERSON PASS CLOUDY    34  30  86 SW5       30.22R THUNDER WCI  30
$$

COZ069>075-230400-
...SAN LUIS VALLEY/SANGRE DE CRISTO MOUNTAINS...

CITY           SKY/WX    TMP DP  RH WIND       PRES   REMARKS
ALAMOSA        MOCLDY    50  32  50 S12       30.05R
LA VETA PASS   MOCLDY   N/A N/A N/A MISG      30.16S
SAGUACHE       CLOUDY    50  32  50 W10       30.06R
$$

COZ035-036-038>040-230400-
...NORTHERN COLORADO FRONT RANGE...

CITY           SKY/WX    TMP DP  RH WIND       PRES   REMARKS
DENVER INTL AP CLOUDY    50  48  93 E5        30.03R
DMNS CITY PARK   N/A     51  46  82 N9        30.01F
AURORA         LGT RAIN  48  48  99 NE7       30.03R
FRONT RANGE AP MOCLDY    50  48  93 E6        30.04R
ERIE MUNI ARPT RAIN      51  48  89 CALM      30.04R
BOULDER MUN AP LGT RAIN  50  48  93 CALM      30.03R
CENTENNIAL     LGT RAIN  49  47  93 NE6       30.02S
BROOMFIELD     HVY RAIN  50  48  93 CALM      30.05R
FORT COLLINS   CLOUDY    52  45  76 N3        30.04R
LONGMONT       CLOUDY    52  49  87 CALM      30.05R
$$

COZ041-046-047-076>085-087-088-230400-
...PIKES PEAK/PALMER DIVIDE AND SOUTHERN FOOTHILLS...

CITY           SKY/WX    TMP DP  RH WIND       PRES   REMARKS
COLO. SPRINGS  MOCLDY    53  45  74 N16       30.01R
A. F. ACADEMY  CLOUDY    50  44  79 N10       30.03R
ELLICOTT       NOT AVBL
FALCON         MOCLDY    48  44  85 N12G22    30.04S
FORT CARSON    MOCLDY    54  47  78 N12       29.99R
LIMON          LGT RAIN  50  47  89 N8        30.00R
MONUMENT HILL  NOT AVBL
TRINIDAD       CLEAR     61  45  55 S28G39    29.95R
$$

COZ042>045-048>051-090-091-230400-
...NORTHEAST COLORADO...

CITY           SKY/WX    TMP DP  RH WIND       PRES   REMARKS
GREELEY ARPT   MOCLDY    48  45  87 E6        30.03R
AKRON          FOG       49  49 100 NE9       30.02R VSB 1/4
BURLINGTON     CLOUDY    54  52  93 SE20G29   29.98R
WRAY           CLOUDY   N/A N/A N/A E12       30.02R
STERLING       CLOUDY    48  46  93 E7        30.03R
HOLYOKE        NOT AVBL
FORT MORGAN    CLOUDY    49  47  93 NE13      30.03S
$$

COZ086-089-092>099-230400-
...SOUTHEAST COLORADO...

CITY           SKY/WX    TMP DP  RH WIND       PRES   REMARKS
PUEBLO         PTCLDY    59  48  67 N10       29.88R
LA JUNTA       CLEAR     67  48  50 S16G26    29.87R
LAMAR          CLEAR     62  53  72 SE20      29.89R
SPRINGFIELD      N/A     57  53  86 S20       29.98R
$$



USA.gov is the U.S. government's official web portal to all federal, state and local government web resources and services.